Regional Weather Roundup
Issued by NWS

Home | Current Version | Previous Version | Text Only | Print | Product List | Glossary On
Versions: 1 2 3 4 5 6 7 8 9 10 11 12 13 14 15 16 17 18 19 20 21 22 23 24 25 26 27 28 29 30 31 32 33 34 35 36 37 38 39 40 41 42 43 44 45 46 47 48 49 50
000
ASUS43 KDTX 250610
RWRMI
MICHIGAN HOURLY REGIONAL WEATHER ROUNDUP
NATIONAL WEATHER SERVICE DETROIT/PONTIAC MI
200 AM EDT MON SEP 25 2017

NOTE: "FAIR" INDICATES FEW OR NO CLOUDS BELOW 12,000 FEET WITH NO
SIGNIFICANT WEATHER AND/OR OBSTRUCTION TO VISIBILITY.

MIZ047>049-052>055-059>063-066>070-074>076-081>083-250700-
SOUTHEAST LOWER MICHIGAN

CITY           SKY/WX    TMP DP  RH WIND       PRES   REMARKS
ADRIAN         PTCLDY    66  63  90 N5        30.08F
6HR MIN TEMP:  65; 6HR MAX TEMP:  77;

ALMA           CLEAR     63  57  82 W3        30.07S
ANN ARBOR      FOG       60  60 100 CALM      30.08S VSB 1/2
BAD AXE        CLEAR     63  60  91 CALM      30.08S
CARO           CLEAR     61  59  94 CALM      30.07S
DETROIT CITY   CLEAR     69  65  86 CALM      30.08S
6HR MIN TEMP:  68; 6HR MAX TEMP:  79;

DETROIT        CLEAR     71  66  84 CALM      30.08S
6HR MIN TEMP:  71; 6HR MAX TEMP:  81;

FLINT          CLEAR     66  63  90 S3        30.07F
6HR MIN TEMP:  62; 6HR MAX TEMP:  77;

GROSSE ILE     CLEAR     69  65  89 CALM      30.06S
6HR MIN TEMP:  68; 6HR MAX TEMP:  75;

HILLSDALE      CLOUDY    68  63  83 SE3       30.08S
HOWELL         CLEAR     67  63  86 CALM      30.09S
6HR MIN TEMP:  67; 6HR MAX TEMP:  78;


CITY           SKY/WX    TMP DP  RH WIND       PRES   REMARKS
JACKSON        CLEAR     66  61  84 CALM      30.08S
6HR MIN TEMP:  66; 6HR MAX TEMP:  82;

LAMBERTVILLE   FOG       68  66  92 CALM      30.06S VSB 1
6HR MIN TEMP:  68; 6HR MAX TEMP:  77;

LANSING        CLEAR     72  61  68 SE5       30.08S
6HR MIN TEMP:  72; 6HR MAX TEMP:  83;

LAPEER         FAIR      60  60  97 CALM      30.08F FOG
6HR MIN TEMP:  60; 6HR MAX TEMP:  76;

MASON          CLEAR     70  63  77 SE5       30.08S
MONROE         CLEAR     71  68  90 CALM      30.06F
6HR MIN TEMP:  71; 6HR MAX TEMP:  77;

MT. CLEMENS    CLEAR     66  66 100 CALM      30.06S
6HR MIN TEMP:  65; 6HR MAX TEMP:  75;

PONTIAC        CLEAR     65  64  97 CALM      30.08S
6HR MIN TEMP:  65; 6HR MAX TEMP:  82;

PORT HOPE        N/A     74  63  68 S8        30.05F
6HR MIN TEMP:  71; 6HR MAX TEMP:  78;

PORT HURON     FOG       63  61  94 CALM      30.08F VSB 1/2
TRI CITIES     CLEAR     71  65  81 S5        30.07S
6HR MIN TEMP:  71; 6HR MAX TEMP:  83;

MIDLAND        FAIR      67  62  86 CALM      30.05F
6HR MIN TEMP:  66; 6HR MAX TEMP:  82;

TROY           CLEAR     70  65  83 CALM      30.10S
SAGINAW HB     CLEAR     66  61  82 SE5       30.06S
$$
MIZ043>046-050>051-056>058-064>065-071>073-077>080-250700-
SOUTHWEST LOWER MICHIGAN

CITY           SKY/WX    TMP DP  RH WIND       PRES   REMARKS
BATTLE CREEK   CLEAR     71  63  75 SE5       30.07F
6HR MIN TEMP:  70; 6HR MAX TEMP:  83;

BENTON HARBOR  CLEAR     62  59  90 E5        30.02F
6HR MIN TEMP:  61; 6HR MAX TEMP:  77;

BIG RAPIDS     CLEAR     62  60  92 CALM      30.06S
6HR MIN TEMP:  61; 6HR MAX TEMP:  77;

COLDWATER      CLEAR     69  65  86 SE6       30.07S
6HR MIN TEMP:  69; 6HR MAX TEMP:  76;

FREMONT        FAIR      65  63  96 E3        30.03F
HOLLAND        CLEAR     67  58  72 SE5       30.04F
6HR MIN TEMP:  63; 6HR MAX TEMP:  74;

GRAND RAPIDS   CLEAR     68  60  75 S7        30.05F
6HR MIN TEMP:  68; 6HR MAX TEMP:  81;

IONIA          FAIR      66  57  73 S6        30.06S
6HR MIN TEMP:  65; 6HR MAX TEMP:  84;

KALAMAZOO      CLEAR     70  60  70 CALM      30.06F
6HR MIN TEMP:  69; 6HR MAX TEMP:  82;

LUDINGTON      CLEAR     62  58  86 CALM      30.01F
6HR MIN TEMP:  59; 6HR MAX TEMP:  69;

MARSHALL       CLEAR     68  65  88 SE5       30.07S
6HR MIN TEMP:  67; 6HR MAX TEMP:  75;

MOUNT PLEASANT CLEAR     67  59  76 CALM      30.06S
6HR MIN TEMP:  67; 6HR MAX TEMP:  80;

MUSKEGON       CLEAR     64  59  83 SE7       30.03S
6HR MIN TEMP:  63; 6HR MAX TEMP:  76;

SOUTH HAVEN    CLEAR     69  59  71 SE5       30.03S
$$
MIZ016>042-250700-
NORTHERN LOWER MICHIGAN

CITY           SKY/WX    TMP DP  RH WIND       PRES   REMARKS
ALPENA         CLEAR     62  62 100 CALM      30.05F
6HR MIN TEMP:  62; 6HR MAX TEMP:  76;

BEAVER ISLAND  CLEAR     72  63  73 S5        30.00S
BELLAIRE       FOG       63  62  96 CALM      30.03S VSB 1/2
6HR MIN TEMP:  63; 6HR MAX TEMP:  74;

CADILLAC       CLEAR     64  58  82 CALM      30.07S
CHARLEVOIX     CLEAR     69  64  83 SE5       30.04F
6HR MIN TEMP:  69; 6HR MAX TEMP:  74;

FRANKFORT      CLEAR     66  62  85 CALM      30.01S
GAYLORD        CLEAR     64  59  83 CALM      30.07F
6HR MIN TEMP:  61; 6HR MAX TEMP:  79;

GRAYLING       CLEAR     61  57  87 CALM      30.08S
6HR MIN TEMP:  58; 6HR MAX TEMP:  75;

HARBOR SPRINGS CLEAR     65  63  94 NE3       30.02F
HOUGHTON LAKE  CLEAR     67  59  75 S5        30.07F
6HR MIN TEMP:  64; 6HR MAX TEMP:  76;

MANISTEE       CLEAR     63  62  97 E5        30.01F
OSCODA         CLEAR     66  65  97 W3        30.06S
6HR MIN TEMP:  65; 6HR MAX TEMP:  75;

PELLSTON       CLEAR     63  62  97 SE3       30.03S
6HR MIN TEMP:  61; 6HR MAX TEMP:  74;

ROGERS CITY    CLEAR     71  63  75 SW7       30.05S
TRAVERSE CITY  CLEAR     71  63  75 CALM      30.01F
6HR MIN TEMP:  70; 6HR MAX TEMP:  78;

$$
MIZ007>008-015-250700-
EASTERN UPPER MICHIGAN

CITY           SKY/WX    TMP DP  RH WIND       PRES   REMARKS
KINROSS        CLEAR     70  64  81 S6        30.02S
6HR MIN TEMP:  68; 6HR MAX TEMP:  77;

MACKINAC ISLAN CLEAR     72  63  74 S8        30.02S
6HR MIN TEMP:  70; 6HR MAX TEMP:  74;

NEWBERRY       CLEAR     67  66  97 S7        30.00S
6HR MIN TEMP:  67; 6HR MAX TEMP:  71;

S. S. MARIE    CLEAR     68  65  90 E3        30.01S
6HR MIN TEMP:  68; 6HR MAX TEMP:  80;

MUNISING         N/A     70  64  81 S7        29.95S
6HR MIN TEMP:  70; 6HR MAX TEMP:  78;

$$
MIZ004>006-011>014-085-250700-
CENTRAL UPPER MICHIGAN

CITY           SKY/WX    TMP DP  RH WIND       PRES   REMARKS
MANISTIQUE     HAZE      61  55  81 S3        29.99S VSB 3/4
6HR MIN TEMP:  60; 6HR MAX TEMP:  68;

ESCANABA       CLEAR     70  63  78 SW6       29.97S
6HR MIN TEMP:  69; 6HR MAX TEMP:  74;

MENOMINEE      CLEAR     70  62  76 SW5       29.98S
6HR MIN TEMP:  69; 6HR MAX TEMP:  76;

SAWYER-GWINN   CLEAR     66  61  83 S6        29.98S
6HR MIN TEMP:  66; 6HR MAX TEMP:  77;

$$
MIZ001>003-009>011-084-250700-
WESTERN UPPER MICHIGAN

CITY           SKY/WX    TMP DP  RH WIND       PRES   REMARKS
IRON MOUNTAIN  CLEAR     67  62  84 SE5       29.97F
6HR MIN TEMP:  67; 6HR MAX TEMP:  79;

HOUGHTON       CLEAR     72  62  71 SW7       29.89F
6HR MIN TEMP:  71; 6HR MAX TEMP:  80;

COPPER HARBOR    N/A     72  63  73 SW8       29.87F
6HR MIN TEMP:  72; 6HR MAX TEMP:  75;

IRONWOOD       PTCLDY    73  60  63 SW7       29.92S
6HR MIN TEMP:  72; 6HR MAX TEMP:  79;

$$

ABBREVIATIONS USED IN REMARKS
   TC - TEMPERATURE IN CELSIUS
  WCI - WIND CHILL INDEX
   HX - HEAT INDEX
  VSB - VISIBILITY





USA.gov is the U.S. government's official web portal to all federal, state and local government web resources and services.